KOQT  Oak Ridge Airport

Add Bookmark

Tennessee, United States

Status
Operational
Latitude Longitude
36° 1' 12" N 84° 13' 48" W
36.020000 -84.230000
Local (DST -4) UTC (GMT -5)
Oct 25, 2014 11:59 Oct 25, 2014 15:59
Sunrise-Sunset Local UTC
Begin Civil Twilight 07:26 11:26
Sunrise 07:52 11:52
Sunset 06:49 22:49
End Civil Twilight 07:15 23:15

Current Weather

METAR Observed VFR
KOQT 251453Z AUTO 00000KT 10SM CLR 12/08 A3012 Sat, Oct 25, 2014 @ 14:53 UTC
(1 Hour, 6 Minutes ago)
Visual Flight Rules
Wind Visibility Clouds Conditions
Calm 10 statute miles
  • Clear skies
  • No significant weather
Temperatures Readings Precipitation
Current Temp 12°C (54°F)
Dewpoint 8°C (46°F)
Humidity 77%
Altimeter 30.12"Hg
Sea Level Pressure 1020.2mb
Field Elevation 908.79'
None Recorded

Additional weather within a 50nm radius of KOQT

Map ICAO Location
KTYS 17nm S (137°)
KGKT 35.4nm E (106°)
KMMI 40.6nm S (204°)
KCSV 41.7nm W (265°)
KMOR 42.5nm E (077°)
1A6 42.7nm N (034°)

24 Hour Weather History

Loading
-

24 Hour Weather Graphs

Loading
-

CheckWX.com is intended as a tool to help pilots better visualize weather data. It is not intended as a substitute for an official weather briefing obtained from a Flight Service Station. CheckWX.com does not meet the FAA requirements for an official pre-flight weather briefing. Therefore, it's important that pilots still call and obtain an official FSS pre-flight weather briefing.